Location: Carr Mill
(33.2054°N, 85.9439°W)
Time: 00:14:44
(UTC+00:00)

Aureole 3 Rocket - Pass Details

Date: 29 October 2020
Orbit: 399 x 1739 km, 82.5° (Epoch: 28 November)

Event Time Altitude Azimuth Distance (km) Brightness Sun altitude
Rises 23:22:03 0° 180° (S) 2,481 6.3 -6.4°
Reaches altitude 10° 23:23:53 10° 178° (S) 1,703 5.5 -6.8°
Maximum altitude 23:27:31 71° 94° (E) 634 2.9 -7.5°
Drops below altitude 10° 23:32:28 10° 10° (N) 2,309 5.8 -8.6°
Sets 23:35:17 0° 9° (N) 3,467 6.7 -9.1°
